Flag for Germany Weather past 2 weeks in Falkensee, Brandenburg, Germany

Now
68 °F

Sprinkles. Broken clouds.


Feels Like: 68 °F
Forecast: 65 / 75 °F
Wind: 2 mph from Northeast

Location: Berlin-Tegel

Current Time: Jul 29, 2014 at 7:37:21 AM

Latest Report: Jul 29, 2014 at 7:20 AM


Visibility: N/A

Pressure: 29.80 "Hg

Humidity: 88%

Dew point: 64 °F

Location of FalkenseeLocation

Historic Weather in Falkensee — Graph

°F

Falkensee temperature yesterday

Maximum temperature yesterday: 82 °F (at 6:20 PM)
Minimum temperature yesterday: 70 °F (at 1:50 AM)
Average temperature yesterday: 75 °F

Past Weeks' High & Low Weather Summary

 TemperatureHumidityPressure
High93 °F (Jul 20, 2:50 PM)100% (Jul 26, 5:20 AM)30.18 "Hg (Jul 26, 5:20 AM)
Low61 °F (Jul 14, 6:20 AM)20% (Jul 19, 3:50 PM)29.74 "Hg (Jul 14, 6:20 AM)
Average74 °F60%29.98 "Hg
* Reported Jul 14 6:20 AM — Jul 29 6:20 AM, Falkensee, Weather by CustomWeather, © 2014

Note: Actual official high and low records may vary slightly from our data, if they occured in-between our weather recording intervals... More about our weather records

Advertising

Falkensee weather history for previous 24 hours

 ConditionsComfort  
Time TempWeatherWind HumidityBarometerVisibility
6:20 AM
Jul 29
68 °FBroken clouds.2 mph83%29.80 "Hg6 mi
5:50 AM68 °FPartly cloudy.3 mph83%29.80 "Hg5 mi
5:20 AM70 °FClear.3 mph78%29.80 "Hg10 mi
4:50 AM70 °FClear.5 mph78%29.80 "Hg10 mi
4:20 AM70 °FClear.3 mph78%29.80 "Hg10 mi
3:50 AM70 °FClear.3 mph78%29.80 "Hg10 mi
3:20 AM70 °FClear.5 mph78%29.80 "Hg10 mi
2:50 AM70 °FClear.5 mph78%29.80 "Hg10 mi
2:20 AM70 °FClear.6 mph78%29.80 "Hg10 mi
1:50 AM72 °FClear.3 mph73%29.80 "Hg10 mi
1:20 AM72 °FClear.5 mph73%29.83 "Hg10 mi
12:50 AM73 °FClear.3 mph69%29.83 "Hg10 mi
12:20 AM73 °FPassing clouds.3 mph69%29.83 "HgN/A
11:20 PM
Jul 28
75 °FClear.5 mph65%29.83 "Hg10 mi
10:50 PM77 °FClear.6 mph61%29.83 "Hg10 mi
10:20 PM77 °FClear.5 mph65%29.86 "Hg10 mi
9:50 PM79 °FSunny.5 mph58%29.86 "Hg10 mi
9:20 PM79 °FSunny.2 mph58%29.86 "Hg10 mi
8:50 PM81 °FSunny.3 mph54%29.83 "Hg10 mi
8:20 PM81 °FSunny.7 mph54%29.83 "Hg10 mi
7:50 PM82 °FSunny.3 mph51%29.83 "Hg10 mi
7:20 PM82 °FPartly sunny.7 mph51%29.83 "HgN/A
6:50 PM82 °FPartly sunny.7 mph51%29.83 "HgN/A
6:20 PM82 °FPartly sunny.6 mph55%29.83 "HgN/A
5:50 PM81 °FSunny.7 mph58%29.83 "Hg10 mi
5:20 PM81 °FSunny.7 mph58%29.83 "Hg10 mi
4:50 PM81 °FSunny.6 mph58%29.86 "Hg10 mi
4:20 PM81 °FPassing clouds.7 mph54%29.86 "HgN/A
3:50 PM79 °FSprinkles. Scattered clouds.7 mph61%29.86 "HgN/A
3:20 PM79 °FSprinkles. Broken clouds.7 mph58%29.89 "HgN/A
2:50 PM79 °FBroken clouds.5 mph58%29.89 "HgN/A
2:20 PM79 °FBroken clouds.6 mph58%29.89 "HgN/A
1:50 PM79 °FPartly sunny.3 mph54%29.92 "HgN/A
1:20 PM79 °FBroken clouds.3 mph54%29.92 "HgN/A
12:50 PM77 °FBroken clouds.6 mph65%29.92 "HgN/A
12:20 PM77 °FBroken clouds.7 mph69%29.92 "HgN/A
11:50 AM75 °FBroken clouds.5 mph69%29.92 "HgN/A
11:20 AM73 °FBroken clouds.7 mph74%29.92 "HgN/A
10:50 AM70 °FBroken clouds.6 mph88%29.92 "HgN/A
10:20 AM70 °FBroken clouds.5 mph83%29.92 "HgN/A
9:50 AM70 °FRain showers. Broken clouds.5 mph83%29.92 "HgN/A
9:20 AM70 °FBroken clouds.6 mph83%29.95 "Hg5 mi
8:50 AM72 °FBroken clouds.12 mph78%29.95 "Hg5 mi
8:20 AM73 °FBroken clouds.5 mph74%29.92 "HgN/A
7:50 AM72 °FSunny.2 mph78%29.92 "Hg10 mi
7:20 AM72 °FSunny.2 mph78%29.89 "Hg10 mi
Weather by CustomWeather, © 2014

See weather overviewHow to use our weather pages